"Period start","avg(HW err(1)/warn(2) (#))","avg(Visibility (m))","avg(Weather code (#))","avg(Precip intensity (mm/h))","min(HW err(1)/warn(2) (#))","max(HW err(1)/warn(2) (#))","std(HW err(1)/warn(2) (#))","med(HW err(1)/warn(2) (#))","min(Visibility (m))","max(Visibility (m))","std(Visibility (m))","med(Visibility (m))","min(Weather code (#))","max(Weather code (#))","std(Weather code (#))","med(Weather code (#))","min(Precip intensity (mm/h))","max(Precip intensity (mm/h))","std(Precip intensity (mm/h))","med(Precip intensity (mm/h))"
2017-06-03 00:00:00,2,32409,0,0.00,2,2,0,2,24537,46448,7494,30078,0,0,0,0,0.00,0.00,0.00,0.00
2017-06-03 00:10:00,2,29573,0,0.00,2,2,0,2,19530,43267,7327,29005,0,0,0,0,0.00,0.00,0.00,0.00
2017-06-03 00:20:00,2,39328,0,0.00,2,2,0,2,23943,47946,7846,42488,0,0,0,0,0.00,0.00,0.00,0.00
2017-06-03 00:30:00,2,29825,0,0.00,2,2,0,2,21926,50000,8935,26452,0,0,0,0,0.00,0.00,0.00,0.00
2017-06-03 00:40:00,2,30613,0,0.00,2,2,0,2,24045,38418,4422,32072,0,0,0,0,0.00,0.00,0.00,0.00
2017-06-03 00:50:00,2,31004,0,0.00,2,2,0,2,25297,41577,5314,28170,0,0,0,0,0.00,0.00,0.00,0.00
2017-06-03 01:00:00,2,35461,0,0.00,2,2,0,2,27828,50000,7328,33182,0,0,0,0,0.00,0.00,0.00,0.00
2017-06-03 01:10:00,2,36434,0,0.00,2,2,0,2,23942,50000,8616,33959,0,0,0,0,0.00,0.00,0.00,0.00
2017-06-03 01:20:00,2,34879,0,0.00,2,2,0,2,26116,44461,6084,33283,0,0,0,0,0.00,0.00,0.00,0.00
2017-06-03 01:30:00,2,35725,0,0.00,2,2,0,2,21276,50000,9367,35979,0,0,0,0,0.00,0.00,0.00,0.00
2017-06-03 01:40:00,2,37674,0,0.00,2,2,0,2,29004,50000,6040,37144,0,0,0,0,0.00,0.00,0.00,0.00
2017-06-03 01:50:00,2,33288,0,0.00,2,2,0,2,22868,50000,9297,29022,0,0,0,0,0.00,0.00,0.00,0.00
2017-06-03 02:00:00,2,40597,0,0.00,2,2,0,2,32770,50000,5287,39642,0,0,0,0,0.00,0.00,0.00,0.00
2017-06-03 02:10:00,2,39140,0,0.00,2,2,0,2,27509,49557,6321,38834,0,0,0,0,0.00,0.00,0.00,0.00
2017-06-03 02:20:00,2,38214,0,0.00,2,2,0,2,29530,46299,5981,37870,0,0,0,0,0.00,0.00,0.00,0.00
2017-06-03 02:30:00,2,32316,0,0.00,2,2,0,2,26187,37173,3724,31686,0,0,0,0,0.00,0.00,0.00,0.00
2017-06-03 02:40:00,2,38620,0,0.00,2,2,0,2,22317,50000,9958,39942,0,0,0,0,0.00,0.00,0.00,0.00
2017-06-03 02:50:00,2,29768,0,0.00,2,2,0,2,23723,41347,5046,29726,0,0,0,0,0.00,0.00,0.00,0.00
2017-06-03 03:00:00,2,36796,0,0.00,2,2,0,2,22940,47723,8602,40540,0,0,0,0,0.00,0.00,0.00,0.00
2017-06-03 03:10:00,2,35682,0,0.00,0,2,1,2,25424,46816,7378,38813,0,0,0,0,0.00,0.00,0.00,0.00
2017-06-03 03:20:00,2,29506,0,0.00,2,2,0,2,16839,48839,8913,26698,0,0,0,0,0.00,0.00,0.00,0.00
2017-06-03 03:30:00,2,30924,0,0.00,2,2,0,2,18756,47554,9089,29690,0,0,0,0,0.00,0.00,0.00,0.00
2017-06-03 03:40:00,2,32746,0,0.00,2,2,0,2,17743,49567,8470,32049,0,0,0,0,0.00,0.00,0.00,0.00
2017-06-03 03:50:00,2,33940,0,0.00,2,2,0,2,20772,50000,8901,32483,0,0,0,0,0.00,0.00,0.00,0.00
2017-06-03 04:00:00,2,28666,0,0.00,2,2,0,2,17784,50000,9214,26144,0,0,0,0,0.00,0.00,0.00,0.00
2017-06-03 04:10:00,2,31545,0,0.00,2,2,0,2,16874,42577,7664,31348,0,0,0,0,0.00,0.00,0.00,0.00
2017-06-03 04:20:00,2,39536,0,0.00,2,2,0,2,23532,49815,8112,39871,0,0,0,0,0.00,0.00,0.00,0.00
2017-06-03 04:30:00,2,33686,0,0.00,2,2,0,2,20154,47509,8667,33892,0,0,0,0,0.00,0.00,0.00,0.00
2017-06-03 04:40:00,2,36672,0,0.00,2,2,0,2,26211,46091,6993,37276,0,0,0,0,0.00,0.00,0.00,0.00
2017-06-03 04:50:00,2,39984,0,0.00,2,2,0,2,27643,50000,8133,38651,0,0,0,0,0.00,0.00,0.00,0.00
2017-06-03 05:00:00,2,41369,0,0.00,2,2,0,2,30383,47051,5216,43028,0,0,0,0,0.00,0.00,0.00,0.00
2017-06-03 05:10:00,2,40438,0,0.00,2,2,0,2,25103,50000,9291,43734,0,0,0,0,0.00,0.00,0.00,0.00
2017-06-03 05:20:00,2,35073,0,0.00,2,2,0,2,23602,45793,6499,35798,0,0,0,0,0.00,0.00,0.00,0.00
2017-06-03 05:30:00,2,32444,0,0.00,2,2,0,2,23680,48062,9107,27580,0,0,0,0,0.00,0.00,0.00,0.00
2017-06-03 05:40:00,2,35829,0,0.00,2,2,0,2,24121,50000,8362,35860,0,0,0,0,0.00,0.00,0.00,0.00
2017-06-03 05:50:00,2,41575,0,0.00,2,2,0,2,32982,50000,4593,42536,0,0,0,0,0.00,0.00,0.00,0.00
2017-06-03 06:00:00,2,39700,0,0.00,2,2,0,2,26307,50000,8034,41248,0,0,0,0,0.00,0.00,0.00,0.00
2017-06-03 06:10:00,2,41648,0,0.00,2,2,0,2,35846,49537,4212,41090,0,0,0,0,0.00,0.00,0.00,0.00
2017-06-03 06:20:00,2,30242,0,0.00,2,2,0,2,23745,35986,4216,30974,0,0,0,0,0.00,0.00,0.00,0.00
2017-06-03 06:30:00,2,33271,0,0.00,2,2,0,2,20833,45613,6368,32812,0,0,0,0,0.00,0.00,0.00,0.00
2017-06-03 06:40:00,2,42653,0,0.00,2,2,0,2,36581,50000,4839,43472,0,0,0,0,0.00,0.00,0.00,0.00
2017-06-03 06:50:00,2,40465,0,0.00,2,2,0,2,30352,50000,7254,40810,0,0,0,0,0.00,0.00,0.00,0.00
2017-06-03 07:00:00,2,39576,0,0.00,2,2,0,2,27726,50000,7625,39332,0,0,0,0,0.00,0.00,0.00,0.00
2017-06-03 07:10:00,2,36760,0,0.00,2,2,0,2,22645,50000,10508,34724,0,0,0,0,0.00,0.00,0.00,0.00
2017-06-03 07:20:00,2,36952,0,0.00,2,2,0,2,31449,42780,3691,35944,0,0,0,0,0.00,0.00,0.00,0.00
2017-06-03 07:30:00,2,41088,0,0.00,2,2,0,2,31670,48011,5757,41766,0,0,0,0,0.00,0.00,0.00,0.00
2017-06-03 07:40:00,2,36520,0,0.00,2,2,0,2,29992,50000,6528,34310,0,0,0,0,0.00,0.00,0.00,0.00
2017-06-03 07:50:00,2,40975,0,0.00,2,2,0,2,24109,50000,6637,41738,0,0,0,0,0.00,0.00,0.00,0.00
2017-06-03 08:00:00,2,37879,0,0.00,2,2,0,2,30102,47899,5220,37822,0,0,0,0,0.00,0.00,0.00,0.00
2017-06-03 08:10:00,2,37669,0,0.00,2,2,0,2,28785,47665,7122,36214,0,0,0,0,0.00,0.00,0.00,0.00
2017-06-03 08:20:00,2,37575,0,0.00,2,2,0,2,29825,49741,5495,38142,0,0,0,0,0.00,0.00,0.00,0.00
2017-06-03 08:30:00,2,35693,0,0.00,2,2,0,2,26745,41420,4092,36179,0,0,0,0,0.00,0.00,0.00,0.00
2017-06-03 08:40:00,2,42866,0,0.00,2,2,0,2,34951,50000,5407,42645,0,0,0,0,0.00,0.00,0.00,0.00
2017-06-03 08:50:00,2,36353,0,0.00,2,2,0,2,28264,50000,6465,35988,0,0,0,0,0.00,0.00,0.00,0.00
2017-06-03 09:00:00,2,40502,0,0.00,2,2,0,2,30046,50000,7009,39569,0,0,0,0,0.00,0.00,0.00,0.00
2017-06-03 09:10:00,2,35352,0,0.00,2,2,0,2,24451,42994,5924,37140,0,0,0,0,0.00,0.00,0.00,0.00
2017-06-03 09:20:00,2,29702,0,0.00,2,2,0,2,21514,38366,5308,29276,0,0,0,0,0.00,0.00,0.00,0.00
2017-06-03 09:30:00,2,36997,0,0.00,2,2,0,2,24634,45002,5804,36664,0,0,0,0,0.00,0.00,0.00,0.00
2017-06-03 09:40:00,2,47321,0,0.00,2,2,0,2,34954,50000,4582,49564,0,0,0,0,0.00,0.00,0.00,0.00
2017-06-03 09:50:00,2,43701,0,0.00,2,2,0,2,28350,50000,8052,48024,0,0,0,0,0.00,0.00,0.00,0.00
2017-06-03 10:00:00,2,37058,0,0.00,2,2,0,2,31260,44351,4296,38682,0,0,0,0,0.00,0.00,0.00,0.00
2017-06-03 10:10:00,2,38750,0,0.00,2,2,0,2,21121,49442,8167,41532,0,0,0,0,0.00,0.00,0.00,0.00
2017-06-03 10:20:00,2,35545,0,0.00,2,2,0,2,23111,47127,7563,38578,0,0,0,0,0.00,0.00,0.00,0.00
2017-06-03 10:30:00,2,35407,0,0.00,2,2,0,2,26354,46321,5540,35466,0,0,0,0,0.00,0.00,0.00,0.00
2017-06-03 10:40:00,2,33723,0,0.00,2,2,0,2,26818,42145,5005,33668,0,0,0,0,0.00,0.00,0.00,0.00
2017-06-03 10:50:00,2,35442,0,0.00,2,2,0,2,25185,49413,7403,34484,0,0,0,0,0.00,0.00,0.00,0.00
2017-06-03 11:00:00,2,35256,0,0.00,2,2,0,2,22634,50000,10157,30422,0,0,0,0,0.00,0.00,0.00,0.00
2017-06-03 11:10:00,2,33193,0,0.00,2,2,0,2,20751,39849,5502,34582,0,0,0,0,0.00,0.00,0.00,0.00
2017-06-03 11:20:00,2,45964,0,0.00,2,2,0,2,37446,50000,3703,45976,0,0,0,0,0.00,0.00,0.00,0.00
2017-06-03 11:30:00,2,44809,0,0.00,2,2,0,2,34080,50000,5469,46148,0,0,0,0,0.00,0.00,0.00,0.00
2017-06-03 11:40:00,2,44766,0,0.00,2,2,0,2,36667,50000,4155,45193,0,0,0,0,0.00,0.00,0.00,0.00
2017-06-03 11:50:00,2,45326,0,0.00,2,2,0,2,38162,49543,3361,46714,0,0,0,0,0.00,0.00,0.00,0.00
2017-06-03 12:00:00,2,47206,0,0.00,2,2,0,2,39355,50000,3247,48093,0,0,0,0,0.00,0.00,0.00,0.00
2017-06-03 12:10:00,2,43484,0,0.00,2,2,0,2,38076,50000,4945,41106,0,0,0,0,0.00,0.00,0.00,0.00
2017-06-03 12:20:00,2,48612,0,0.00,2,2,0,2,41795,50000,2719,50000,0,0,0,0,0.00,0.00,0.00,0.00
2017-06-03 12:30:00,2,49556,0,0.00,2,2,0,2,46500,50000,1057,50000,0,0,0,0,0.00,0.00,0.00,0.00
2017-06-03 12:40:00,2,48167,0,0.00,2,2,0,2,41976,50000,2953,49881,0,0,0,0,0.00,0.00,0.00,0.00
2017-06-03 12:50:00,2,46814,0,0.00,2,2,0,2,38197,50000,3863,48740,0,0,0,0,0.00,0.00,0.00,0.00
2017-06-03 13:00:00,2,48646,0,0.00,2,2,0,2,41339,50000,2828,50000,0,0,0,0,0.00,0.00,0.00,0.00
2017-06-03 13:10:00,2,48902,0,0.00,2,2,0,2,43114,50000,2092,50000,0,0,0,0,0.00,0.00,0.00,0.00
2017-06-03 13:20:00,2,46926,0,0.00,2,2,0,2,37483,50000,3558,47450,0,0,0,0,0.00,0.00,0.00,0.00
2017-06-03 13:30:00,2,48707,0,0.00,2,2,0,2,42843,50000,2165,49852,0,0,0,0,0.00,0.00,0.00,0.00
2017-06-03 13:40:00,2,46098,0,0.00,2,2,0,2,33697,50000,4895,47990,0,0,0,0,0.00,0.00,0.00,0.00
2017-06-03 13:50:00,2,39281,0,0.00,2,2,0,2,32685,50000,5834,36976,0,0,0,0,0.00,0.00,0.00,0.00
2017-06-03 14:00:00,2,49809,0,0.00,2,2,0,2,48094,50000,572,50000,0,0,0,0,0.00,0.00,0.00,0.00
2017-06-03 14:10:00,2,49783,0,0.00,2,2,0,2,47830,50000,651,50000,0,0,0,0,0.00,0.00,0.00,0.00
2017-06-03 14:20:00,2,49783,0,0.00,2,2,0,2,48579,50000,459,50000,0,0,0,0,0.00,0.00,0.00,0.00
2017-06-03 14:30:00,2,49994,0,0.00,2,2,0,2,49938,50000,19,50000,0,0,0,0,0.00,0.00,0.00,0.00
2017-06-03 14:40:00,2,50000,0,0.00,2,2,0,2,50000,50000,0,50000,0,0,0,0,0.00,0.00,0.00,0.00
2017-06-03 14:50:00,2,50000,0,0.00,2,2,0,2,50000,50000,0,50000,0,0,0,0,0.00,0.00,0.00,0.00
2017-06-03 15:00:00,2,50000,0,0.00,2,2,0,2,50000,50000,0,50000,0,0,0,0,0.00,0.00,0.00,0.00
2017-06-03 15:10:00,2,49943,0,0.00,2,2,0,2,49433,50000,170,50000,0,0,0,0,0.00,0.00,0.00,0.00
2017-06-03 15:20:00,2,47561,0,0.00,2,2,0,2,44037,50000,2261,47610,0,0,0,0,0.00,0.00,0.00,0.00
2017-06-03 15:30:00,2,42353,0,0.00,2,2,0,2,25799,50000,7926,43361,0,0,0,0,0.00,0.00,0.00,0.00
2017-06-03 15:40:00,2,36434,8,0.00,2,2,0,2,22228,41683,5341,37428,0,41,16,0,0.00,0.00,0.00,0.00
2017-06-03 15:50:00,2,47873,25,0.00,2,2,0,2,44057,50000,2232,48530,0,41,20,41,0.00,0.00,0.00,0.00
2017-06-03 16:00:00,2,43062,12,0.00,2,2,0,2,32271,50000,5585,42678,0,41,19,0,0.00,0.00,0.00,0.00
2017-06-03 16:10:00,2,48068,0,0.00,2,2,0,2,43023,50000,2241,48919,0,0,0,0,0.00,0.00,0.00,0.00
2017-06-03 16:20:00,2,32274,8,0.01,2,2,0,2,12595,50000,12917,33568,0,40,16,0,0.00,0.05,0.02,0.00
2017-06-03 16:30:00,2,29229,69,0.00,2,2,0,2,15975,50000,11754,25078,41,77,14,77,0.00,0.00,0.00,0.00
2017-06-03 16:40:00,2,46734,0,0.00,2,2,0,2,30778,50000,6039,49746,0,0,0,0,0.00,0.00,0.00,0.00
2017-06-03 16:50:00,2,47752,0,0.00,2,2,0,2,40680,50000,3446,50000,0,0,0,0,0.00,0.00,0.00,0.00
2017-06-03 17:00:00,2,50000,0,0.00,2,2,0,2,50000,50000,0,50000,0,0,0,0,0.00,0.00,0.00,0.00
2017-06-03 17:10:00,2,48508,0,0.00,2,2,0,2,42213,50000,2688,50000,0,0,0,0,0.00,0.00,0.00,0.00
2017-06-03 17:20:00,2,50000,0,0.00,2,2,0,2,50000,50000,0,50000,0,0,0,0,0.00,0.00,0.00,0.00
2017-06-03 17:30:00,2,40497,0,0.00,2,2,0,2,32698,50000,5080,40409,0,0,0,0,0.00,0.00,0.00,0.00
2017-06-03 17:40:00,2,47608,0,0.00,2,2,0,2,37601,50000,3982,50000,0,0,0,0,0.00,0.00,0.00,0.00
2017-06-03 17:50:00,2,50000,0,0.00,2,2,0,2,50000,50000,0,50000,0,0,0,0,0.00,0.00,0.00,0.00
2017-06-03 18:00:00,2,50000,0,0.00,2,2,0,2,50000,50000,0,50000,0,0,0,0,0.00,0.00,0.00,0.00
2017-06-03 18:10:00,2,49716,0,0.00,2,2,0,2,48522,50000,568,50000,0,0,0,0,0.00,0.00,0.00,0.00
2017-06-03 18:20:00,2,50000,0,0.00,2,2,0,2,50000,50000,0,50000,0,0,0,0,0.00,0.00,0.00,0.00
2017-06-03 18:30:00,2,49806,0,0.00,2,2,0,2,48061,50000,582,50000,0,0,0,0,0.00,0.00,0.00,0.00
2017-06-03 18:40:00,2,49868,0,0.00,2,2,0,2,48680,50000,396,50000,0,0,0,0,0.00,0.00,0.00,0.00
2017-06-03 18:50:00,2,49951,0,0.00,2,2,0,2,49510,50000,147,50000,0,0,0,0,0.00,0.00,0.00,0.00
2017-06-03 19:00:00,2,49360,0,0.00,2,2,0,2,46438,50000,1289,50000,0,0,0,0,0.00,0.00,0.00,0.00
2017-06-03 19:10:00,2,49648,0,0.00,2,2,0,2,47211,50000,841,50000,0,0,0,0,0.00,0.00,0.00,0.00
2017-06-03 19:20:00,2,50000,0,0.00,2,2,0,2,50000,50000,0,50000,0,0,0,0,0.00,0.00,0.00,0.00
2017-06-03 19:30:00,2,50000,0,0.00,2,2,0,2,50000,50000,0,50000,0,0,0,0,0.00,0.00,0.00,0.00
2017-06-03 19:40:00,2,49835,0,0.00,2,2,0,2,48348,50000,496,50000,0,0,0,0,0.00,0.00,0.00,0.00
2017-06-03 19:50:00,2,49951,0,0.00,2,2,0,2,49512,50000,146,50000,0,0,0,0,0.00,0.00,0.00,0.00
2017-06-03 20:00:00,2,49578,0,0.00,2,2,0,2,46213,50000,1128,50000,0,0,0,0,0.00,0.00,0.00,0.00
2017-06-03 20:10:00,2,48800,0,0.00,2,2,0,2,43383,50000,1984,49958,0,0,0,0,0.00,0.00,0.00,0.00
2017-06-03 20:20:00,2,35058,0,0.00,2,2,0,2,21409,50000,10371,32496,0,0,0,0,0.00,0.00,0.00,0.00
2017-06-03 20:30:00,2,15337,57,0.01,2,2,0,2,7291,24682,6256,15658,0,77,25,71,0.00,0.05,0.02,0.00
2017-06-03 20:40:00,2,8141,74,0.04,2,2,0,2,4571,12999,2297,8088,71,77,3,74,0.00,0.10,0.03,0.05
2017-06-03 20:50:00,2,5423,70,0.08,2,2,0,2,2174,9259,2058,5654,10,77,20,77,0.00,0.30,0.10,0.05
2017-06-03 21:00:00,2,5552,48,0.02,2,2,0,2,2944,10998,2261,4924,10,77,31,71,0.00,0.05,0.02,0.00
2017-06-03 21:10:00,2,4438,77,0.07,2,2,0,2,2628,6361,1331,4464,77,77,0,77,0.00,0.15,0.04,0.05
2017-06-03 21:20:00,2,8954,76,0.04,2,2,0,2,3326,25060,6780,5287,71,77,2,77,0.00,0.05,0.02,0.05
2017-06-03 21:30:00,2,20840,60,0.01,2,2,0,2,4656,40608,13223,14708,0,77,30,77,0.00,0.05,0.02,0.00
2017-06-03 21:40:00,2,32142,0,0.00,2,2,0,2,18581,43463,6643,30900,0,0,0,0,0.00,0.00,0.00,0.00
2017-06-03 21:50:00,2,30295,0,0.00,2,2,0,2,21262,43828,5993,29388,0,0,0,0,0.00,0.00,0.00,0.00
2017-06-03 22:00:00,2,24438,0,0.00,2,2,0,2,10701,34387,6657,25218,0,0,0,0,0.00,0.00,0.00,0.00
2017-06-03 22:10:00,2,37868,0,0.00,2,2,0,2,12069,50000,14253,44482,0,0,0,0,0.00,0.00,0.00,0.00
2017-06-03 22:20:00,2,23670,0,0.00,2,2,0,2,16774,38889,6370,23389,0,0,0,0,0.00,0.00,0.00,0.00
2017-06-03 22:30:00,2,38721,0,0.00,2,2,0,2,14984,48200,12473,46854,0,0,0,0,0.00,0.00,0.00,0.00
2017-06-03 22:40:00,2,21453,0,0.00,2,2,0,2,8632,45878,14074,13284,0,0,0,0,0.00,0.00,0.00,0.00
2017-06-03 22:50:00,2,29981,0,0.00,2,2,0,2,15881,46462,9832,28234,0,0,0,0,0.00,0.00,0.00,0.00
2017-06-03 23:00:00,2,10414,0,0.00,2,2,0,2,9173,13793,1349,10259,0,0,0,0,0.00,0.00,0.00,0.00
2017-06-03 23:10:00,2,8264,4,0.00,2,2,0,2,7060,9410,782,8273,0,10,5,0,0.00,0.00,0.00,0.00
2017-06-03 23:20:00,2,7630,19,0.00,2,2,0,2,5676,9739,1203,7830,10,41,14,10,0.00,0.00,0.00,0.00
2017-06-03 23:30:00,2,7599,16,0.00,2,2,0,2,5808,9918,1092,7554,10,41,12,10,0.00,0.00,0.00,0.00
2017-06-03 23:40:00,2,10733,10,0.00,2,2,0,2,7252,15203,2313,10102,10,10,0,10,0.00,0.00,0.00,0.00
2017-06-03 23:50:00,2,10843,3,0.00,2,2,0,2,8349,14997,2093,10098,0,10,5,0,0.00,0.00,0.00,0.00
